Regional Weather Roundup
Issued by NWS

Home | Current Version | Previous Version | Graphics & Text | Print | Product List | Glossary On
Versions: 1 2 3 4 5 6 7 8 9 10 11 12 13 14 15 16 17 18 19 20 21 22 23 24 25 26 27 28 29 30 31 32 33 34 35 36 37 38 39 40 41 42 43 44 45 46 47 48 49 50
000
ASUS43 KMPX 100710
RWRMN
WEATHER ROUNDUP FOR MINNESOTA
NATIONAL WEATHER SERVICE TWIN CITIES/CHANHASSEN MN
100 AM CST SAT DEC 10 2016


NOTE: "FAIR" INDICATES FEW OR NO CLOUDS BELOW 12,000 FEET WITH NO
SIGNIFICANT WEATHER AND/OR OBSTRUCTIONS TO VISIBILITY. N/A MEANS
CURRENT SKY AND/OR WEATHER CONDITIONS ARE NOT AVAILABLE.

MNZ060>063-068>070-100800-
   Twin Cities Metro

CITY           SKY/WX    TMP DP  RH WIND       PRES   REMARKS
TWIN CITIES    MOCLDY     8   1  73 W9        30.51R WCI  -5
ST PAUL        CLOUDY     9   2  73 NW10      30.52S WCI  -5
CRYSTAL        CLEAR      7  -2  66 W7        30.50R WCI  -5
BLAINE         PTCLDY     9   1  72 W9        30.49R WCI  -5
LAKEVILLE      CLEAR      5   1  85 W7        30.49S WCI  -7
EDEN PRAIRIE   CLEAR      7   0  73 W8        30.50R WCI  -6
SOUTH ST PAUL  CLOUDY    11   2  68 W7        30.50S WCI   0
LAKE ELMO      CLOUDY    12   5  73 W9        30.49S WCI   0
$$
MNZ001>005-007-008-013>017-022>024-027-028-100800-
   Northwest Minnesota

CITY           SKY/WX    TMP DP  RH WIND       PRES   REMARKS
BEMIDJI        CLOUDY    -3  -7  80 W6        30.45F WCI -15
HALLOCK        CLOUDY    -4  -9  77 NW8       30.54S WCI -19
ROSEAU         CLOUDY    -8 -11  84 W6        30.49S WCI -21
WARROAD        CLEAR     -9 -13  84 SW3       30.47F
THIEF RVR FALL FLURRIES  -6 -10  83 W6        30.51F WCI -19
CROOKSTON      LGT SNOW  -4  -9  77 CALM      30.54F
FOSSTON        CLOUDY   -11 -17  77 CALM      30.49F
DETROIT LAKES  CLOUDY    -4  -8  84 NW5       30.48F WCI -15
MOORHEAD       CLEAR     -8 -15  71 NW5       30.55F WCI -19
PARK RAPIDS    CLOUDY     0  -9  65 NW8       30.44F WCI -14
$$
MNZ006-009>011-018-025>026-100800-
   North Central Minnesota

CITY           SKY/WX    TMP DP  RH WIND       PRES   REMARKS
BAUDETTE       CLEAR     -6 -11  79 W8        30.44F WCI -21
FLAG ISLAND    CLEAR     -6  -8  92 W13       30.45F WCI -25
INTL FALLS     CLEAR     -5  -9  83 W7        30.43S WCI -19
WASKISH        CLOUDY     1  -6  71 W7        30.46S WCI -11
BIG FORK       PTCLDY    -2  -8  78 CALM      30.44S
LONGVILLE      LGT SNOW   1  -4  78 CALM      30.45S
GRAND RAPIDS   FLURRIES   2  -4  76 NW9       30.45S WCI -13
CRANE LAKE     PTCLDY    -4  -8  84 CALM      30.45S
ORR            CLOUDY    -6 -11  77 CALM      30.40S
COOK           PTCLDY    -6  -8  92 W5        30.43S WCI -17
$$
MNZ012-019>021-037-100800-
   Northeast Minnesota

CITY           SKY/WX    TMP DP  RH WIND       PRES   REMARKS
DULUTH         LGT SNOW   5   0  79 N6        30.39F WCI  -6
ELY            CLOUDY     1  -4  78 W8        30.38S WCI -12
HIBBING        CLOUDY     1  -5  75 N9        30.41F WCI -14
EVELETH        CLOUDY     3  -4  73 NW8       30.41F WCI -11
DULUTH HARBOR  CLOUDY    10   0  61 W3        30.48F
TWO HARBORS    CLEAR     -2  -9  71 CALM      30.41S
SILVER BAY     CLOUDY     5  -2  72 W5        30.40S WCI  -4
GRAND MARAIS     N/A     10   1  67 W3        30.42R
G MARAIS ARPRT CLOUDY     3  -4  72 NW6       30.29S WCI  -8
$$
MNZ029>031-032-039>041-046>048-054>057-064-100800-
   West Central Minnesota

CITY           SKY/WX    TMP DP  RH WIND       PRES   REMARKS
FERGUS FALLS   CLOUDY    -8 -11  84 NW8       30.58S WCI -23
WHEATON        CLEAR     -4  -8  84 NW8       30.57S WCI -19
MORRIS         CLEAR     -2  -8  78 NW9       30.52S WCI -18
ALEXANDRIA     CLOUDY    -3  -7  82 W3        30.48S
ELBOW LAKE     FAIR      -6  -9  85 W10       30.51F WCI -24
WADENA         LGT SNOW  -4  -8  84 CALM      30.46F
GLENWOOD       CLEAR     -6  -9  84 NW7       30.49S WCI -20
APPLETON       CLEAR      1  -6  71 NW7       30.54S WCI -11
BENSON         CLEAR     -2  -8  78 N7        30.52S WCI -16
ORTONVILLE     CLEAR     -2  -8  78 N8        30.53F WCI -17
MADISON        CLEAR      3  -2  78 NW6       30.55S WCI  -8
WILLMAR        FAIR       1  -2  85 CALM      30.52S
$$
MNZ033>034-036-042>043-049>051-058-059-100800-
   Central Minnesota

CITY           SKY/WX    TMP DP  RH WIND       PRES   REMARKS
ST CLOUD       CLEAR      2  -2  83 W7        30.49S WCI -11
PAYNESVILLE    CLEAR      0  -4  85 NW5       30.50S WCI -10
AITKIN         CLOUDY     9  -4  56 W5        30.44S WCI   0
PINE RIVER     CLOUDY     3  -2  78 W5        30.47F WCI  -6
BRAINERD       CLOUDY     4  -4  69 NW6       30.46S WCI  -7
LONG PRAIRIE   FAIR      -4  -8  84 CALM      30.48S
LITTLE FALLS   CLEAR      1  -4  78 NW3       30.49S
LITCHFIELD     CLEAR      3  -2  78 NW8       30.50F WCI -10
BUFFALO        CLEAR      5   0  79 W7        30.51S WCI  -7
MAPLE LAKE     CLEAR      5   1  86 W5        30.51S WCI  -4
HUTCHINSON     CLEAR      5   1  81 W6        30.51F WCI  -6
$$
MNZ037-044-045-052-053-100800-
   East Central Minnesota

CITY           SKY/WX    TMP DP  RH WIND       PRES   REMARKS
PRINCETON      CLEAR      5   0  78 W5        30.48S WCI  -4
MORA           CLOUDY    10   1  67 W8        30.48S WCI  -1
CAMBRIDGE      CLOUDY    10   1  67 W5        30.46S WCI   2
RUSH CITY      CLOUDY    10   3  72 W7        30.47S WCI   0
MOOSE LAKE     CLOUDY    10   1  67 N5        30.43S WCI   2
HINCKLEY       CLOUDY    12   5  73 CALM      30.45F
CLOQUET        CLOUDY     7   0  72 W5        30.41S WCI  -2
MCGREGOR       CLOUDY     9   0  66 NW7       30.44S WCI  -3
$$
MNZ071>073-080-081-089-090-097-098-100800-
   Southwest Minnesota

CITY           SKY/WX    TMP DP  RH WIND       PRES   REMARKS
MONTEVIDEO     CLEAR      0  -6  78 CALM      30.55S
GRANITE FALLS  PTCLDY     4  -1  81 NW3       30.55S
CANBY          CLOUDY     5   1  82 NW7       30.54S WCI  -7
MARSHALL       CLOUDY     5   0  79 N7        30.53S WCI  -7
REDWOOD FALLS  CLOUDY     5  -2  72 NW8       30.53S WCI  -8
OLIVIA         CLEAR      3  -2  78 W3        30.52S
PIPESTONE      CLOUDY     7   1  78 NE5       30.44F WCI  -2
WINDOM         CLOUDY     7   1  78 MISG      30.48S
WORTHINGTON    FLURRIES   7   3  84 N6        30.47S WCI  -3
JACKSON        CLOUDY     9   3  78 N5        30.47F WCI   0
TRACY          CLOUDY     7   3  83 N6        30.50S WCI  -3
SLAYTON        CLOUDY     6   2  86 N7        30.47S WCI  -6
$$
MNZ065>067-074>077-082>085-091>093-100800-
   South Central Minnesota

CITY           SKY/WX    TMP DP  RH WIND       PRES   REMARKS
NEW ULM        CLOUDY     5   0  78 NW7       30.52S WCI  -7
ST JAMES       CLOUDY     7   3  85 NW10      30.52F WCI  -8
FAIRMONT       FLURRIES   8   4  83 N9        30.50F WCI  -5
GLENCOE        CLEAR      6   2  86 W5        30.51S WCI  -3
FARIBAULT      CLOUDY     7   3  85 W6        30.49F WCI  -3
OWATONNA       CLOUDY     9   3  78 W6        30.48S WCI  -1
WASECA         FLURRIES  10   5  79 W7        30.51R WCI   0
ALBERT LEA     CLOUDY    14  10  85 W5        30.47F WCI   6
$$
MNZ078>079-086>088-094>096-100800-
   Southeast Minnesota

CITY           SKY/WX    TMP DP  RH WIND       PRES   REMARKS
ROCHESTER      CLOUDY     8   5  87 NW10      30.45F WCI  -6
RED WING       FLURRIES  10   3  72 W7        30.49S WCI   0
STANTON        CLEAR      8   3  80 W6        30.49S WCI  -2
DODGE CENTER   PTCLDY     7   3  85 NW5       30.45F WCI  -2
WINONA         PTCLDY    14   9  79 W7        30.50F WCI   4
AUSTIN         LGT SNOW  10   7  85 NW5       30.47S WCI   2
PRESTON        LGT SNOW   9   6  87 NW6       30.46S WCI  -1
$$
ABBREVIATIONS USED IN REMARKS
   TC - TEMPERATURES IN CELSIUS
  WCI - WIND CHILL INDEX
   HX - HEAT INDEX
  VSB - VISIBILITY
$$



USA.gov is the U.S. government's official web portal to all federal, state and local government web resources and services.